Location: Newark
(42.9260°N, 89.3850°W)
Time: 13:55:18
(UTC+00:00)

ISS - Visible Passes

Search period start: 10 December 2019 00:00
Search period end: 20 December 2019 00:00
Orbit: 411 x 421 km, 51.6° (Epoch: 10 December)

Date Brightness Start Highest point End Pass type
(mag) Time Alt. Az. Time Alt. Az. Time Alt. Az.
10 Dec -1.8 00:26:02 10° WNW 00:28:59 28° SW 00:30:15 22° S visible
10 Dec -2.8 23:37:22 10° WNW 23:40:37 48° SW 23:43:52 10° SE visible
12 Dec -0.3 00:27:36 10° WSW 00:28:24 11° SW 00:29:13 10° SW visible
12 Dec -0.7 23:37:44 10° W 23:40:07 18° SW 23:42:30 10° S visible
